STARLINK-6028, 56818

Orbit data source: Space-Track

STARLINK-6028, 56818 is a payload satellite owned by SpaceX/Seattle (US) in LEO that was launched on Wed, 31 May 2023 UTC via an FALCON 9 launch vehicle from the Air Force Western Test Range (AFWTR). Payload-class satellites include a variety of spacecraft equipped with specific instruments for various scientific and technological missions. These include communications satellites like Starlink; space stations such as the ISS; scientific satellites like the Hubble; Earth observation satellites from companies like Planet Labs, Umbra, and HawkEye 360; GPS; miniature CubeSats for education and research; and military/defense satellites.

Loading next visibility...
Identifier
56818, 2023-078BD
Orbit
LEO
Country
Flag of USUS
Related business
Manufacturer
SpaceX/Seattle
Mission
Operational Commercial Communications
Bus & Motor
STARLINK, Unknown motor
Mass
305 kg wet, ~290 kg dry
Launch date (UTC)
2023-05-31 (3 years ago)
Launch vehicle
FALCON 9
Launch site
Air Force Western Test Range (AFWTR)
Object type
Payload
Rocket body
Debris
Shape & HBR
Box + 1 Pan, 10.1 m
Radar Cross Section
11.087 m², Large (>1 m²)

Expand to show TLE details & history
Last TLE update: 2 days ago

TLE from 2 days ago
0 STARLINK-6028
1 56818U 23078BD  26171.15978447  .00005178  00000-0  44130-3 0  9996
2 56818  70.0011  85.9157 0002889 267.8864  92.1965 14.98342798168723
Epoch: 2026-06-20T03:50Z
TLE epoch observation values (Epoch: 2026-06-20T03:50:05.378Z)
Latitude
0.00006°
Longitude
120.01491°
Altitude
574.518 km
Speed
7.574 km/s
True Right ascension
05h 43m 39s
True Declination
0° 00' 00"
Sunlit
Object was in daylight at epoch
Visualization orbit readout
Latitude
Unknown
Longitude
Unknown
Altitude
Unknown
Speed
Unknown
Apparent Right ascension
Unknown
Apparent Declination
Unknown
Sunlit
N/A
Visualization observer readout
Local Sidereal Time
21:31:56
Azimuth
Unknown
Elevation
Unknown
Doppler factor
Unknown
Orbital elements
Apogee altitude
571.972 km
Perigee altitude
567.957 km
Semi-major axis
6,948.101 km
Eccentricity
0.00029
Inclination
70.0011°
RAAN
85.9157°
Arg. of periapsis
267.8864°
True anomaly
92.22958°
Mean anomaly
92.1965°
Eccentric anomaly
92.21304°
Mean motion
3.74752 °/min
Orbital period
96.06 mins
BSTAR
0.0004413
Loading maneuver chart data...
Computing Atmospheric mass density...
Loading historical data...
Loading historical data...
Loading historical data...
Loading historical data...
Loading historical data...
Loading historical data...
Loading historical data...

Documentation

Showing up to 5 results
|